Location: Newark
(25.1987°N, 100.3705°W)
Time: 03:53:34
(UTC+00:00)

LightSail 2 - Pass Details

Date: 11 April 2020
Orbit: 695 x 719 km, 24.0° (Epoch: 28 May)

Event Time Altitude Azimuth Distance (km) Brightness Sun altitude
Exits shadow 10:03:57 41° 99° (E) 998 6.1 -30.5°
Drops below altitude 10° 10:07:17 10° 90° (E) 2,146 8.3 -29.8°
Sets 10:09:41 0° 89° (E) 3,060 9.4 -29.3°
